Time,TemperatureF,DewpointF,PressureIn,WindDirection,WindDirectionDegrees,WindSpeedMPH,WindSpeedGustMPH,Humidity,HourlyPrecipIn,Conditions,Clouds,dailyrainin,SoftwareType,DateUTC
2013-02-13 00:00:00,33.3,24.0,29.92,SW,226,0.0,0.0,69,0.00,,,0.00,oem by Ross Wheeler,2013-02-13 05:00:00,
2013-02-13 00:05:00,33.3,24.0,29.92,SW,226,0.0,0.0,69,0.00,,,0.00,oem by Ross Wheeler,2013-02-13 05:05:00,
2013-02-13 00:19:00,33.0,24.0,29.92,WSW,243,1.0,0.0,70,0.00,,,0.00,oem by Ross Wheeler,2013-02-13 05:19:00,
2013-02-13 00:25:00,33.0,24.0,29.92,WSW,243,1.0,0.0,70,0.00,,,0.00,oem by Ross Wheeler,2013-02-13 05:25:00,
2013-02-13 00:30:00,32.9,24.0,29.92,SW,223,0.0,0.0,71,0.00,,,0.00,oem by Ross Wheeler,2013-02-13 05:30:00,
2013-02-13 00:37:00,32.9,24.0,29.92,WSW,250,0.0,0.0,71,0.00,,,0.00,oem by Ross Wheeler,2013-02-13 05:37:00,
2013-02-13 00:45:00,32.7,25.0,29.92,WSW,247,2.0,0.0,72,0.00,,,0.00,oem by Ross Wheeler,2013-02-13 05:45:00,
2013-02-13 00:55:00,32.9,25.0,29.92,WSW,241,0.0,0.0,72,0.00,,,0.00,oem by Ross Wheeler,2013-02-13 05:55:00,
2013-02-13 01:00:00,33.0,25.0,29.92,West,264,2.0,0.0,72,0.00,,,0.00,oem by Ross Wheeler,2013-02-13 06:00:00,
2013-02-13 01:10:00,32.9,25.0,29.92,WSW,248,1.0,0.0,73,0.00,,,0.00,oem by Ross Wheeler,2013-02-13 06:10:00,
2013-02-13 01:15:00,32.7,25.0,29.92,SW,220,0.0,0.0,72,0.00,,,0.00,oem by Ross Wheeler,2013-02-13 06:15:00,
2013-02-13 01:25:00,32.3,24.0,29.92,SW,224,2.0,0.0,72,0.00,,,0.00,oem by Ross Wheeler,2013-02-13 06:25:00,
2013-02-13 01:30:00,32.1,24.0,29.92,SW,224,1.0,0.0,72,0.00,,,0.00,oem by Ross Wheeler,2013-02-13 06:30:00,
2013-02-13 01:40:00,31.9,24.0,29.92,SW,220,3.0,0.0,73,0.00,,,0.00,oem by Ross Wheeler,2013-02-13 06:40:00,
2013-02-13 01:45:00,31.9,24.0,29.92,SW,224,2.0,0.0,73,0.00,,,0.00,oem by Ross Wheeler,2013-02-13 06:45:00,
2013-02-13 01:55:00,31.6,24.0,29.93,SW,223,0.0,0.0,73,0.00,,,0.00,oem by Ross Wheeler,2013-02-13 06:55:00,
2013-02-13 02:00:00,31.4,24.0,29.93,SW,217,2.0,0.0,74,0.00,,,0.00,oem by Ross Wheeler,2013-02-13 07:00:00,
2013-02-13 02:10:00,31.1,24.0,29.93,SW,217,1.0,0.0,74,0.00,,,0.00,oem by Ross Wheeler,2013-02-13 07:10:00,
2013-02-13 02:15:00,31.0,24.0,29.93,SW,217,1.0,0.0,75,0.00,,,0.00,oem by Ross Wheeler,2013-02-13 07:15:00,
2013-02-13 02:25:00,30.7,24.0,29.93,SW,216,0.0,0.0,75,0.00,,,0.00,oem by Ross Wheeler,2013-02-13 07:25:00,
2013-02-13 02:30:00,30.5,23.0,29.93,SW,216,2.0,0.0,75,0.00,,,0.00,oem by Ross Wheeler,2013-02-13 07:30:00,
2013-02-13 02:40:00,30.2,24.0,29.93,SW,216,0.0,0.0,76,0.00,,,0.00,oem by Ross Wheeler,2013-02-13 07:40:00,
2013-02-13 02:45:00,30.1,24.0,29.93,SW,227,2.0,0.0,77,0.00,,,0.00,oem by Ross Wheeler,2013-02-13 07:45:00,
2013-02-13 02:55:00,29.9,24.0,29.93,SW,224,0.0,0.0,77,0.00,,,0.00,oem by Ross Wheeler,2013-02-13 07:55:00,
2013-02-13 03:00:00,29.8,23.0,29.93,SW,224,0.0,0.0,77,0.00,,,0.00,oem by Ross Wheeler,2013-02-13 08:00:00,
2013-02-13 03:10:00,29.8,23.0,29.93,SW,224,0.0,0.0,77,0.00,,,0.00,oem by Ross Wheeler,2013-02-13 08:10:00,
2013-02-13 03:15:00,29.8,23.0,29.93,SW,224,0.0,0.0,77,0.00,,,0.00,oem by Ross Wheeler,2013-02-13 08:15:00,
2013-02-13 03:25:00,29.5,23.0,29.92,WSW,255,0.0,0.0,78,0.00,,,0.00,oem by Ross Wheeler,2013-02-13 08:25:00,
2013-02-13 03:30:00,29.3,24.0,29.92,WSW,255,1.0,0.0,79,0.00,,,0.00,oem by Ross Wheeler,2013-02-13 08:30:00,
2013-02-13 03:40:00,29.2,24.0,29.91,WSW,255,1.0,0.0,80,0.00,,,0.00,oem by Ross Wheeler,2013-02-13 08:40:00,
2013-02-13 03:45:00,29.0,24.0,29.91,WSW,255,1.0,0.0,80,0.00,,,0.00,oem by Ross Wheeler,2013-02-13 08:45:00,
2013-02-13 03:55:00,28.6,24.0,29.90,WSW,255,1.0,0.0,81,0.00,,,0.00,oem by Ross Wheeler,2013-02-13 08:55:00,
2013-02-13 04:00:00,28.5,23.0,29.90,WSW,255,0.0,0.0,81,0.00,,,0.00,oem by Ross Wheeler,2013-02-13 09:00:00,
2013-02-13 04:10:00,28.5,23.0,29.89,WNW,287,1.0,0.0,81,0.00,,,0.00,oem by Ross Wheeler,2013-02-13 09:10:00,
2013-02-13 04:15:00,28.6,24.0,29.89,WNW,287,1.0,0.0,81,0.00,,,0.00,oem by Ross Wheeler,2013-02-13 09:15:00,
2013-02-13 04:25:00,28.6,24.0,29.88,WNW,287,1.0,0.0,81,0.00,,,0.00,oem by Ross Wheeler,2013-02-13 09:25:00,
2013-02-13 04:30:00,28.7,24.0,29.88,WNW,287,2.0,0.0,81,0.00,,,0.00,oem by Ross Wheeler,2013-02-13 09:30:00,
2013-02-13 04:40:00,28.6,24.0,29.88,WNW,287,0.0,0.0,81,0.00,,,0.00,oem by Ross Wheeler,2013-02-13 09:40:00,
2013-02-13 04:45:00,28.6,24.0,29.88,WNW,287,2.0,0.0,81,0.00,,,0.00,oem by Ross Wheeler,2013-02-13 09:45:00,
2013-02-13 04:55:00,28.7,24.0,29.87,NNW,330,1.0,0.0,81,0.00,,,0.00,oem by Ross Wheeler,2013-02-13 09:55:00,
2013-02-13 05:00:00,28.6,24.0,29.87,NNW,330,1.0,0.0,81,0.00,,,0.00,oem by Ross Wheeler,2013-02-13 10:00:00,
2013-02-13 05:10:00,28.5,23.0,29.87,NNW,330,0.0,0.0,81,0.00,,,0.00,oem by Ross Wheeler,2013-02-13 10:10:00,
2013-02-13 05:15:00,28.2,23.0,29.87,NNW,330,0.0,0.0,81,0.00,,,0.00,oem by Ross Wheeler,2013-02-13 10:15:00,
2013-02-13 05:25:00,27.9,23.0,29.88,NNW,330,0.0,0.0,82,0.00,,,0.00,oem by Ross Wheeler,2013-02-13 10:25:00,
2013-02-13 05:30:00,27.9,23.0,29.88,NNW,330,1.0,0.0,82,0.00,,,0.00,oem by Ross Wheeler,2013-02-13 10:30:00,
2013-02-13 05:40:00,28.0,23.0,29.89,NNW,330,0.0,0.0,82,0.00,,,0.00,oem by Ross Wheeler,2013-02-13 10:40:00,
2013-02-13 05:45:00,27.9,23.0,29.89,NNW,330,0.0,0.0,82,0.00,,,0.00,oem by Ross Wheeler,2013-02-13 10:45:00,
2013-02-13 05:55:00,27.7,23.0,29.90,NNW,329,0.0,0.0,83,0.00,,,0.00,oem by Ross Wheeler,2013-02-13 10:55:00,
2013-02-13 06:00:00,27.6,23.0,29.90,NNW,329,0.0,0.0,83,0.00,,,0.00,oem by Ross Wheeler,2013-02-13 11:00:00,
2013-02-13 06:10:00,27.7,24.0,29.89,NNW,329,0.0,0.0,84,0.00,,,0.00,oem by Ross Wheeler,2013-02-13 11:10:00,
2013-02-13 06:15:00,27.6,23.0,29.89,NNW,329,0.0,0.0,83,0.00,,,0.00,oem by Ross Wheeler,2013-02-13 11:15:00,
2013-02-13 06:25:00,27.3,23.0,29.89,NNW,329,0.0,0.0,84,0.00,,,0.00,oem by Ross Wheeler,2013-02-13 11:25:00,
2013-02-13 06:30:00,27.0,23.0,29.89,NNW,329,0.0,0.0,84,0.00,,,0.00,oem by Ross Wheeler,2013-02-13 11:30:00,
2013-02-13 06:40:00,26.5,23.0,29.88,NNW,329,0.0,0.0,85,0.00,,,0.00,oem by Ross Wheeler,2013-02-13 11:40:00,
2013-02-13 06:45:00,26.4,23.0,29.88,NNW,329,0.0,0.0,85,0.00,,,0.00,oem by Ross Wheeler,2013-02-13 11:45:00,
2013-02-13 06:55:00,25.9,22.0,29.89,NNW,329,0.0,0.0,86,0.00,,,0.00,oem by Ross Wheeler,2013-02-13 11:55:00,
2013-02-13 07:00:00,25.9,22.0,29.89,NNW,329,0.0,0.0,86,0.00,,,0.00,oem by Ross Wheeler,2013-02-13 12:00:00,
2013-02-13 07:10:00,25.6,22.0,29.89,NNW,329,0.0,0.0,87,0.00,,,0.00,oem by Ross Wheeler,2013-02-13 12:10:00,
2013-02-13 07:15:00,25.6,23.0,29.89,NNW,329,0.0,0.0,88,0.00,,,0.00,oem by Ross Wheeler,2013-02-13 12:15:00,
2013-02-13 07:25:00,25.5,23.0,29.88,NNW,329,0.0,0.0,88,0.00,,,0.00,oem by Ross Wheeler,2013-02-13 12:25:00,
2013-02-13 07:30:00,25.6,23.0,29.88,NNW,329,0.0,0.0,88,0.00,,,0.00,oem by Ross Wheeler,2013-02-13 12:30:00,
2013-02-13 07:40:00,25.9,23.0,29.89,NNW,329,0.0,0.0,89,0.00,,,0.00,oem by Ross Wheeler,2013-02-13 12:40:00,
2013-02-13 07:45:00,26.2,23.0,29.89,NNW,329,0.0,0.0,89,0.00,,,0.00,oem by Ross Wheeler,2013-02-13 12:45:00,
2013-02-13 07:55:00,27.1,24.0,29.89,NNW,329,0.0,0.0,89,0.00,,,0.00,oem by Ross Wheeler,2013-02-13 12:55:00,
2013-02-13 08:00:00,27.6,25.0,29.89,NNW,329,0.0,0.0,89,0.00,,,0.00,oem by Ross Wheeler,2013-02-13 13:00:00,
2013-02-13 08:10:00,28.5,26.0,29.88,NNW,329,0.0,0.0,89,0.00,,,0.00,oem by Ross Wheeler,2013-02-13 13:10:00,
2013-02-13 08:15:00,29.0,26.0,29.88,NNW,329,0.0,0.0,88,0.00,,,0.00,oem by Ross Wheeler,2013-02-13 13:15:00,
2013-02-13 08:25:00,30.5,26.0,29.88,NNW,329,0.0,0.0,84,0.00,,,0.00,oem by Ross Wheeler,2013-02-13 13:25:00,
2013-02-13 08:30:00,31.4,27.0,29.88,NNW,329,0.0,0.0,82,0.00,,,0.00,oem by Ross Wheeler,2013-02-13 13:30:00,
2013-02-13 08:40:00,32.1,26.0,29.87,NNW,329,0.0,0.0,79,0.00,,,0.00,oem by Ross Wheeler,2013-02-13 13:40:00,
2013-02-13 08:45:00,32.6,26.0,29.87,NNW,329,0.0,0.0,78,0.00,,,0.00,oem by Ross Wheeler,2013-02-13 13:45:00,
2013-02-13 08:55:00,33.9,26.0,29.87,NNW,329,0.0,0.0,73,0.00,,,0.00,oem by Ross Wheeler,2013-02-13 13:55:00,
2013-02-13 09:00:00,34.7,25.0,29.87,NNW,329,0.0,0.0,69,0.00,,,0.00,oem by Ross Wheeler,2013-02-13 14:00:00,
2013-02-13 09:10:00,35.4,26.0,29.87,NNW,329,0.0,0.0,69,0.00,,,0.00,oem by Ross Wheeler,2013-02-13 14:10:00,
2013-02-13 09:15:00,35.8,25.0,29.87,NNW,329,0.0,0.0,66,0.00,,,0.00,oem by Ross Wheeler,2013-02-13 14:15:00,
2013-02-13 09:25:00,36.4,25.0,29.86,NNW,329,0.0,0.0,64,0.00,,,0.00,oem by Ross Wheeler,2013-02-13 14:25:00,
2013-02-13 09:30:00,36.8,25.0,29.86,NNW,330,0.0,0.0,63,0.00,,,0.00,oem by Ross Wheeler,2013-02-13 14:30:00,
2013-02-13 09:40:00,37.2,25.0,29.86,NNE,20,0.0,0.0,61,0.00,,,0.00,oem by Ross Wheeler,2013-02-13 14:40:00,
2013-02-13 09:45:00,37.4,24.0,29.86,NE,42,0.0,0.0,60,0.00,,,0.00,oem by Ross Wheeler,2013-02-13 14:45:00,
2013-02-13 09:55:00,37.8,24.0,29.85,NE,42,0.0,0.0,57,0.00,,,0.00,oem by Ross Wheeler,2013-02-13 14:55:00,
2013-02-13 10:00:00,37.8,23.0,29.85,NNE,21,1.0,0.0,56,0.00,,,0.00,oem by Ross Wheeler,2013-02-13 15:00:00,
2013-02-13 10:10:00,37.8,24.0,29.85,NNE,27,1.0,0.0,58,0.00,,,0.00,oem by Ross Wheeler,2013-02-13 15:10:00,
2013-02-13 10:15:00,38.1,23.0,29.85,NNE,28,0.0,0.0,55,0.00,,,0.00,oem by Ross Wheeler,2013-02-13 15:15:00,
2013-02-13 10:25:00,38.7,24.0,29.85,ESE,114,1.0,0.0,56,0.00,,,0.00,oem by Ross Wheeler,2013-02-13 15:25:00,
2013-02-13 10:30:00,39.0,24.0,29.85,SSE,162,1.0,0.0,55,0.00,,,0.00,oem by Ross Wheeler,2013-02-13 15:30:00,
2013-02-13 10:40:00,38.7,24.0,29.86,SSW,193,1.0,0.0,56,0.00,,,0.00,oem by Ross Wheeler,2013-02-13 15:40:00,
2013-02-13 10:45:00,38.8,25.0,29.86,SE,133,3.0,0.0,58,0.00,,,0.00,oem by Ross Wheeler,2013-02-13 15:45:00,
2013-02-13 10:55:00,38.7,26.0,29.87,South,169,3.0,0.0,61,0.00,,,0.00,oem by Ross Wheeler,2013-02-13 15:55:00,
2013-02-13 11:00:00,38.7,26.0,29.87,SSE,152,3.0,0.0,60,0.00,,,0.00,oem by Ross Wheeler,2013-02-13 16:00:00,
2013-02-13 11:10:00,38.8,25.0,29.87,SSE,164,1.0,0.0,58,0.00,,,0.00,oem by Ross Wheeler,2013-02-13 16:10:00,
2013-02-13 11:15:00,39.1,25.0,29.87,South,179,3.0,0.0,58,0.00,,,0.00,oem by Ross Wheeler,2013-02-13 16:15:00,
2013-02-13 11:25:00,39.1,24.0,29.87,SSW,212,5.0,0.0,56,0.00,,,0.00,oem by Ross Wheeler,2013-02-13 16:25:00,
2013-02-13 11:30:00,39.1,24.0,29.87,SSE,168,0.0,0.0,56,0.00,,,0.00,oem by Ross Wheeler,2013-02-13 16:30:00,
2013-02-13 11:40:00,39.3,24.0,29.85,SSE,167,2.0,0.0,54,0.00,,,0.00,oem by Ross Wheeler,2013-02-13 16:40:00,
2013-02-13 11:45:00,39.3,25.0,29.85,SE,141,1.0,0.0,56,0.00,,,0.00,oem by Ross Wheeler,2013-02-13 16:45:00,
2013-02-13 11:55:00,39.3,25.0,29.85,SE,135,1.0,0.0,56,0.00,,,0.00,oem by Ross Wheeler,2013-02-13 16:55:00,
2013-02-13 12:00:00,39.5,25.0,29.85,SSE,151,1.0,0.0,56,0.00,,,0.00,oem by Ross Wheeler,2013-02-13 17:00:00,
2013-02-13 12:10:00,39.7,24.0,29.83,South,178,2.0,0.0,54,0.00,,,0.00,oem by Ross Wheeler,2013-02-13 17:10:00,
2013-02-13 12:15:00,39.8,25.0,29.83,South,175,0.0,0.0,55,0.00,,,0.00,oem by Ross Wheeler,2013-02-13 17:15:00,
2013-02-13 12:25:00,40.1,25.0,29.82,South,174,2.0,0.0,55,0.00,,,0.00,oem by Ross Wheeler,2013-02-13 17:25:00,
2013-02-13 12:30:00,40.0,24.0,29.82,South,174,1.0,0.0,53,0.00,,,0.00,oem by Ross Wheeler,2013-02-13 17:30:00,
2013-02-13 12:40:00,40.1,24.0,29.81,South,169,1.0,0.0,54,0.00,,,0.00,oem by Ross Wheeler,2013-02-13 17:40:00,
2013-02-13 12:45:00,40.3,26.0,29.81,East,97,0.0,0.0,56,0.00,,,0.00,oem by Ross Wheeler,2013-02-13 17:45:00,
2013-02-13 12:55:00,40.3,25.0,29.80,SE,140,0.0,0.0,54,0.00,,,0.00,oem by Ross Wheeler,2013-02-13 17:55:00,
2013-02-13 13:00:00,40.4,25.0,29.80,SSE,167,0.0,0.0,54,0.00,,,0.00,oem by Ross Wheeler,2013-02-13 18:00:00,
2013-02-13 13:10:00,41.0,27.0,29.78,East,86,0.0,0.0,57,0.00,,,0.00,oem by Ross Wheeler,2013-02-13 18:10:00,
2013-02-13 13:15:00,41.1,25.0,29.78,ESE,119,0.0,0.0,53,0.00,,,0.00,oem by Ross Wheeler,2013-02-13 18:15:00,
2013-02-13 13:25:00,41.1,26.0,29.76,ENE,71,0.0,0.0,55,0.00,,,0.00,oem by Ross Wheeler,2013-02-13 18:25:00,
2013-02-13 13:30:00,41.3,26.0,29.76,NNE,23,3.0,0.0,54,0.00,,,0.00,oem by Ross Wheeler,2013-02-13 18:30:00,
2013-02-13 13:40:00,41.4,26.0,29.75,East,79,2.0,0.0,54,0.00,,,0.00,oem by Ross Wheeler,2013-02-13 18:40:00,
2013-02-13 13:45:00,41.5,26.0,29.75,SE,127,2.0,0.0,54,0.00,,,0.00,oem by Ross Wheeler,2013-02-13 18:45:00,
2013-02-13 13:55:00,42.0,28.0,29.74,South,169,2.0,0.0,58,0.00,,,0.00,oem by Ross Wheeler,2013-02-13 18:55:00,
2013-02-13 14:00:00,42.1,28.0,29.74,SSE,158,2.0,0.0,58,0.00,,,0.00,oem by Ross Wheeler,2013-02-13 19:00:00,
2013-02-13 14:10:00,41.5,28.0,29.75,SE,127,6.0,0.0,59,0.00,,,0.00,oem by Ross Wheeler,2013-02-13 19:10:00,
2013-02-13 14:15:00,40.5,28.0,29.75,SSE,157,5.0,0.0,62,0.00,,,0.00,oem by Ross Wheeler,2013-02-13 19:15:00,
2013-02-13 14:25:00,39.8,28.0,29.75,SE,144,2.0,0.0,63,0.00,,,0.00,oem by Ross Wheeler,2013-02-13 19:25:00,
2013-02-13 14:30:00,39.7,28.0,29.75,ESE,114,3.0,0.0,63,0.00,,,0.00,oem by Ross Wheeler,2013-02-13 19:30:00,
2013-02-13 14:40:00,39.7,27.0,29.75,SSE,148,3.0,0.0,61,0.00,,,0.00,oem by Ross Wheeler,2013-02-13 19:40:00,
2013-02-13 14:45:00,39.5,28.0,29.75,SE,140,2.0,0.0,63,0.00,,,0.00,oem by Ross Wheeler,2013-02-13 19:45:00,
2013-02-13 14:55:00,39.8,28.0,29.75,SSE,168,6.0,0.0,62,0.00,,,0.00,oem by Ross Wheeler,2013-02-13 19:55:00,
2013-02-13 15:00:00,40.0,28.0,29.75,SE,145,5.0,0.0,62,0.00,,,0.00,oem by Ross Wheeler,2013-02-13 20:00:00,
2013-02-13 15:10:00,40.1,28.0,29.74,SE,133,2.0,0.0,62,0.00,,,0.00,oem by Ross Wheeler,2013-02-13 20:10:00,
2013-02-13 15:15:00,40.3,28.0,29.74,SSE,152,2.0,0.0,63,0.00,,,0.00,oem by Ross Wheeler,2013-02-13 20:15:00,
2013-02-13 15:25:00,40.1,28.0,29.74,SE,138,1.0,0.0,62,0.00,,,0.00,oem by Ross Wheeler,2013-02-13 20:25:00,
2013-02-13 15:30:00,39.8,28.0,29.74,SE,145,3.0,0.0,63,0.00,,,0.00,oem by Ross Wheeler,2013-02-13 20:30:00,
2013-02-13 15:40:00,39.5,28.0,29.73,ESE,123,1.0,0.0,63,0.00,,,0.00,oem by Ross Wheeler,2013-02-13 20:40:00,
2013-02-13 15:45:00,39.4,28.0,29.73,ESE,119,3.0,0.0,64,0.00,,,0.00,oem by Ross Wheeler,2013-02-13 20:45:00,
2013-02-13 15:55:00,39.3,28.0,29.72,SE,128,1.0,0.0,65,0.00,,,0.00,oem by Ross Wheeler,2013-02-13 20:55:00,
2013-02-13 16:00:00,39.1,28.0,29.72,SE,134,5.0,0.0,65,0.00,,,0.00,oem by Ross Wheeler,2013-02-13 21:00:00,
2013-02-13 16:10:00,39.0,28.0,29.73,SSE,148,1.0,0.0,66,0.00,,,0.00,oem by Ross Wheeler,2013-02-13 21:10:00,
2013-02-13 16:15:00,38.8,27.0,29.73,SSE,155,0.0,0.0,64,0.00,,,0.00,oem by Ross Wheeler,2013-02-13 21:15:00,
2013-02-13 16:25:00,38.7,27.0,29.72,SSE,155,1.0,0.0,64,0.00,,,0.00,oem by Ross Wheeler,2013-02-13 21:25:00,
2013-02-13 16:30:00,38.5,27.0,29.72,SSE,155,0.0,0.0,63,0.00,,,0.00,oem by Ross Wheeler,2013-02-13 21:30:00,
2013-02-13 16:40:00,38.4,27.0,29.70,SSE,151,2.0,0.0,63,0.00,,,0.00,oem by Ross Wheeler,2013-02-13 21:40:00,
2013-02-13 16:46:00,38.4,27.0,29.70,SSE,151,0.0,0.0,65,0.00,,,0.00,oem by Ross Wheeler,2013-02-13 21:46:00,
2013-02-13 16:55:00,38.3,27.0,29.68,SSE,150,0.0,0.0,64,0.00,,,0.00,oem by Ross Wheeler,2013-02-13 21:55:00,
2013-02-13 17:00:00,38.3,28.0,29.68,SSE,150,1.0,0.0,66,0.00,,,0.00,oem by Ross Wheeler,2013-02-13 22:00:00,
2013-02-13 17:10:00,38.1,28.0,29.67,SE,144,0.0,0.0,67,0.00,,,0.00,oem by Ross Wheeler,2013-02-13 22:10:00,
2013-02-13 17:15:00,38.1,28.0,29.67,SE,145,0.0,0.0,68,0.00,,,0.00,oem by Ross Wheeler,2013-02-13 22:15:00,
2013-02-13 17:25:00,38.0,29.0,29.68,SE,145,0.0,0.0,69,0.00,,,0.00,oem by Ross Wheeler,2013-02-13 22:25:00,
2013-02-13 17:30:00,37.8,28.0,29.68,SE,144,0.0,0.0,69,0.00,,,0.00,oem by Ross Wheeler,2013-02-13 22:30:00,
2013-02-13 17:40:00,37.7,29.0,29.67,SE,145,0.0,0.0,70,0.00,,,0.00,oem by Ross Wheeler,2013-02-13 22:40:00,
2013-02-13 17:45:00,37.7,29.0,29.67,SE,144,0.0,0.0,71,0.00,,,0.00,oem by Ross Wheeler,2013-02-13 22:45:00,
2013-02-13 17:55:00,37.5,29.0,29.67,SE,144,0.0,0.0,72,0.00,,,0.00,oem by Ross Wheeler,2013-02-13 22:55:00,
2013-02-13 18:00:00,37.4,29.0,29.67,SE,144,0.0,0.0,72,0.00,,,0.00,oem by Ross Wheeler,2013-02-13 23:00:00,
2013-02-13 18:10:00,37.2,29.0,29.66,SE,144,0.0,0.0,73,0.00,,,0.00,oem by Ross Wheeler,2013-02-13 23:10:00,
2013-02-13 18:15:00,37.2,29.0,29.66,SE,144,0.0,0.0,73,0.00,,,0.00,oem by Ross Wheeler,2013-02-13 23:15:00,
2013-02-13 18:25:00,37.0,29.0,29.66,SSE,161,2.0,0.0,72,0.00,,,0.00,oem by Ross Wheeler,2013-02-13 23:25:00,
2013-02-13 18:30:00,37.0,29.0,29.66,SSE,164,1.0,0.0,73,0.00,,,0.00,oem by Ross Wheeler,2013-02-13 23:30:00,
2013-02-13 18:40:00,36.8,29.0,29.68,SE,140,0.0,0.0,74,0.00,,,0.00,oem by Ross Wheeler,2013-02-13 23:40:00,
2013-02-13 18:45:00,36.8,29.0,29.68,SE,144,2.0,0.0,74,0.00,,,0.00,oem by Ross Wheeler,2013-02-13 23:45:00,
2013-02-13 18:55:00,36.8,30.0,29.69,ESE,116,2.0,0.0,75,0.00,,,0.00,oem by Ross Wheeler,2013-02-13 23:55:00,
2013-02-13 19:00:00,36.8,30.0,29.69,SSE,147,3.0,0.0,75,0.00,,,0.00,oem by Ross Wheeler,2013-02-14 00:00:00,
2013-02-13 19:10:00,36.8,29.0,29.68,ESE,117,0.0,0.0,74,0.00,,,0.00,oem by Ross Wheeler,2013-02-14 00:10:00,
2013-02-13 19:15:00,36.8,29.0,29.68,ESE,117,0.0,0.0,74,0.00,,,0.00,oem by Ross Wheeler,2013-02-14 00:15:00,
2013-02-13 19:25:00,36.8,30.0,29.68,ESE,117,1.0,0.0,75,0.00,,,0.00,oem by Ross Wheeler,2013-02-14 00:25:00,
2013-02-13 19:30:00,36.7,30.0,29.68,ESE,117,1.0,0.0,76,0.00,,,0.00,oem by Ross Wheeler,2013-02-14 00:30:00,
2013-02-13 19:40:00,36.7,29.0,29.68,ESE,117,0.0,0.0,75,0.00,,,0.00,oem by Ross Wheeler,2013-02-14 00:40:00,
2013-02-13 19:45:00,36.5,30.0,29.68,ESE,117,0.0,0.0,76,0.00,,,0.00,oem by Ross Wheeler,2013-02-14 00:45:00,
2013-02-13 19:55:00,36.4,30.0,29.67,ESE,117,0.0,0.0,77,0.00,,,0.00,oem by Ross Wheeler,2013-02-14 00:55:00,
2013-02-13 20:00:00,36.2,30.0,29.67,ESE,117,0.0,0.0,77,0.00,,,0.00,oem by Ross Wheeler,2013-02-14 01:00:00,
2013-02-13 20:10:00,36.1,30.0,29.67,ESE,117,0.0,0.0,79,0.00,,,0.00,oem by Ross Wheeler,2013-02-14 01:10:00,
2013-02-13 20:15:00,36.1,30.0,29.67,ESE,117,0.0,0.0,79,0.00,,,0.00,oem by Ross Wheeler,2013-02-14 01:15:00,
2013-02-13 20:25:00,35.8,30.0,29.68,ESE,117,0.0,0.0,80,0.00,,,0.00,oem by Ross Wheeler,2013-02-14 01:25:00,
2013-02-13 20:30:00,35.8,30.0,29.68,ESE,117,0.0,0.0,80,0.00,,,0.00,oem by Ross Wheeler,2013-02-14 01:30:00,
2013-02-13 20:40:00,35.8,31.0,29.68,ESE,117,0.0,0.0,81,0.00,,,0.00,oem by Ross Wheeler,2013-02-14 01:40:00,
2013-02-13 20:45:00,35.8,30.0,29.68,ESE,117,0.0,0.0,80,0.00,,,0.00,oem by Ross Wheeler,2013-02-14 01:45:00,
2013-02-13 20:55:00,35.8,31.0,29.68,ESE,123,2.0,0.0,81,0.00,,,0.00,oem by Ross Wheeler,2013-02-14 01:55:00,
2013-02-13 21:00:00,35.7,31.0,29.68,ESE,123,0.0,0.0,82,0.00,,,0.00,oem by Ross Wheeler,2013-02-14 02:00:00,
2013-02-13 21:10:00,35.2,31.0,29.69,ESE,123,0.0,0.0,84,0.00,,,0.00,oem by Ross Wheeler,2013-02-14 02:10:00,
2013-02-13 21:15:00,35.1,31.0,29.69,ESE,123,0.0,0.0,84,0.00,,,0.00,oem by Ross Wheeler,2013-02-14 02:15:00,
2013-02-13 21:25:00,34.8,31.0,29.69,ESE,123,0.0,0.0,86,0.00,,,0.00,oem by Ross Wheeler,2013-02-14 02:25:00,
2013-02-13 21:30:00,34.7,31.0,29.69,ESE,123,0.0,0.0,87,0.00,,,0.00,oem by Ross Wheeler,2013-02-14 02:30:00,
2013-02-13 21:40:00,34.4,31.0,29.68,ESE,123,0.0,0.0,87,0.00,,,0.00,oem by Ross Wheeler,2013-02-14 02:40:00,
2013-02-13 21:45:00,34.2,31.0,29.68,ESE,123,0.0,0.0,88,0.00,,,0.00,oem by Ross Wheeler,2013-02-14 02:45:00,
2013-02-13 21:55:00,34.2,31.0,29.68,South,182,1.0,0.0,89,0.00,,,0.00,oem by Ross Wheeler,2013-02-14 02:55:00,
2013-02-13 22:00:00,34.2,31.0,29.68,SSW,205,0.0,0.0,89,0.00,,,0.00,oem by Ross Wheeler,2013-02-14 03:00:00,
2013-02-13 22:10:00,34.1,32.0,29.68,West,275,0.0,0.0,90,0.00,,,0.01,oem by Ross Wheeler,2013-02-14 03:10:00,
2013-02-13 22:15:00,34.1,32.0,29.68,West,277,1.0,0.0,90,0.00,,,0.01,oem by Ross Wheeler,2013-02-14 03:15:00,
2013-02-13 22:25:00,33.8,32.0,29.67,West,277,1.0,0.0,91,0.00,,,0.01,oem by Ross Wheeler,2013-02-14 03:25:00,
2013-02-13 22:30:00,33.8,32.0,29.67,West,275,0.0,0.0,91,0.00,,,0.02,oem by Ross Wheeler,2013-02-14 03:30:00,
2013-02-13 22:40:00,33.6,32.0,29.67,West,275,0.0,0.0,92,0.00,,,0.02,oem by Ross Wheeler,2013-02-14 03:40:00,
2013-02-13 22:45:00,33.6,32.0,29.67,West,275,0.0,0.0,92,0.00,,,0.02,oem by Ross Wheeler,2013-02-14 03:45:00,
2013-02-13 22:55:00,33.6,32.0,29.67,NNE,28,0.0,0.0,92,0.00,,,0.02,oem by Ross Wheeler,2013-02-14 03:55:00,
2013-02-13 23:00:00,33.8,32.0,29.67,NNE,23,1.0,0.0,92,0.00,,,0.02,oem by Ross Wheeler,2013-02-14 04:00:00,
2013-02-13 23:10:00,33.9,32.0,29.67,NNE,24,0.0,0.0,93,0.00,,,0.02,oem by Ross Wheeler,2013-02-14 04:10:00,
2013-02-13 23:15:00,33.9,32.0,29.67,NNE,24,2.0,0.0,93,0.00,,,0.02,oem by Ross Wheeler,2013-02-14 04:15:00,
2013-02-13 23:35:00,33.9,32.0,29.68,NNE,20,2.0,0.0,93,0.00,,,0.02,oem by Ross Wheeler,2013-02-14 04:35:00,